Flag for U.S.A. Weather past 2 weeks in Tuba City, Arizona, U.S.A.

44 °F


Feels Like: 41 °F
Forecast: 46 / 73 °F
Wind: 6 mph from Northeast

Location: Grand Canyon National Park Airport

Current Time: Oct 4, 2015 at 1:39:53 AM

Latest Report: Oct 4, 2015 at 12:54 AM

Visibility: 10 mi

Pressure: 29.69 "Hg (24.69 "Hg at 1510m altitude)

Humidity: 49%

Dew point: 26 °F

Location of Tuba CityLocation

Historic Weather in Tuba City — Graph


Tuba City temperature yesterday

Maximum temperature yesterday: 67 °F (at 1:54 PM)
Minimum temperature yesterday: 30 °F (at 6:54 AM)
Average temperature yesterday: 52 °F

Past Weeks' High & Low Weather Summary

High83 °F (Sep 30, 3:54 PM)96% (Sep 23, 12:54 AM)30.18 "Hg (Sep 23, 12:54 AM)
Low30 °F (Oct 3, 6:54 AM)11% (Oct 2, 4:54 PM)29.64 "Hg (Oct 3, 5:54 PM)
Average59 °F49%29.98 "Hg
* Reported Sep 18 11:54 PM — Oct 3 11:54 PM, Tuba City, Weather by CustomWeather, © 2015

Note: Actual official high and low records may vary slightly from our data, if they occured in-between our weather recording intervals... More about our weather records


Tuba City weather history for previous 24 hours

Time TempWeatherWind HumidityBarometerVisibility
11:54 PM
Sat, Oct 3
41 °FClear.No wind55%29.72 "Hg10 mi
10:54 PM45 °FClear.3 mph49%29.69 "Hg10 mi
9:54 PM55 °FPassing clouds.7 mph37%29.65 "Hg10 mi
8:54 PM54 °FClear.5 mph37%29.68 "Hg10 mi
7:54 PM58 °FPassing clouds.7 mph33%29.70 "Hg10 mi
6:54 PM64 °FPartly sunny.9 mph26%29.67 "Hg10 mi
5:54 PM66 °FPartly sunny.12 mph23%29.64 "Hg10 mi
4:54 PM66 °FPartly sunny.9 mph25%29.65 "Hg10 mi
3:54 PM66 °FPartly sunny.14 mph26%29.65 "Hg10 mi
2:54 PM66 °FPartly sunny.No wind26%29.66 "Hg10 mi
1:54 PM67 °FSunny.7 mph25%29.68 "Hg10 mi
12:54 PM65 °FSunny.8 mph27%29.70 "Hg10 mi
11:54 AM62 °FSunny.No wind30%29.72 "Hg10 mi
10:54 AM62 °FSunny.12 mph32%29.73 "Hg10 mi
9:54 AM59 °FSunny.7 mph35%29.74 "Hg10 mi
8:54 AM46 °FSunny.No wind51%29.79 "Hg10 mi
7:54 AM31 °FSunny.No wind76%29.81 "Hg10 mi
6:54 AM30 °FClear.No wind72%29.78 "Hg10 mi
5:54 AM32 °FClear.No wind69%29.75 "Hg10 mi
4:54 AM32 °FClear.No wind66%29.75 "Hg10 mi
3:54 AM33 °FClear.No wind63%29.77 "Hg10 mi
1:54 AM35 °FClear.No wind61%29.78 "Hg10 mi
Weather by CustomWeather, © 2015

See weather overviewHow to use our weather pages